Tracking 35275 objects as of 9-Sep-2026
HD Live streaming from Space Station
objects crossing your sky now

IRIDIUM 33 DEB


IRIDIUM 33 DEB is no longer on orbit


NORAD ID: 36391
Int'l Code: 1997-051VV
Launch date: September 14, 1997
Source: United States (US)
Launch site: TYURATAM MISSILE AND SPACE COMPLEX (TTMTR)
Decay date: 2013-08-25

Note: This is SATELLITE DEBRIS
Your satellite tracking list
Your tracking list is empty




NASA's NSSDC Master Catalog

Two Line Element Set (TLE):
1 36391U 97051VV  13077.58571058  .00118586  00000-0  70856-2 0  9998
2 36391 086.3998 187.2680 0018928 178.7987 237.4664 15.10400412198451
Source of the keplerian elements: AFSPC